Location: Narragansett
(41.4496°N, 71.4488°W)
Time: 23:53:36
(UTC+00:00)

X-37B - Visible Passes

Search period start: 28 September 2021 00:00
Search period end: 08 October 2021 00:00
Orbit: 381 x 393 km, 45.0° (Epoch: 29 August)

Date Brightness Start Highest point End Pass type
(mag) Time Alt. Az. Time Alt. Az. Time Alt. Az.
28 Sep 2.4 08:34:46 30° NE 08:34:46 30° NE 08:36:44 10° ENE visible
28 Sep 1.2 10:07:32 10° WNW 10:10:37 51° NNE 10:13:43 10° E visible
29 Sep 1.4 09:11:21 34° NW 09:12:09 42° N 09:15:11 10° E visible
30 Sep 3.5 08:15:41 17° ENE 08:15:41 17° ENE 08:16:40 10° ENE visible
30 Sep 0.7 09:47:59 15° WNW 09:50:33 70° NNE 09:53:42 10° ESE visible
01 Oct 1.4 08:52:23 48° NE 08:52:23 48° NE 08:55:11 10° E visible
02 Oct 0.5 09:29:10 33° WNW 09:30:24 75° SSW 09:33:33 10° ESE visible
03 Oct 2.9 08:33:44 24° E 08:33:44 24° E 08:35:09 10° ESE visible
03 Oct 2.0 10:06:03 11° W 10:08:27 24° SW 10:11:04 10° SSE visible
04 Oct 1.4 09:10:44 38° S 09:10:44 38° S 09:13:12 10° SE visible
05 Oct 2.7 09:47:52 13° SW 09:48:05 13° SW 09:49:44 10° S visible
